Weather History for KFFO - August, 2013

Change the Weather History Date:

Wednesday, August 14, 2013

  Actual Average Record
Temperature  
Mean Temperature 60 °F -  
Max Temperature 69 °F 81 °F 90 °F (2010)
Min Temperature 52 °F 60 °F 51 °F (2004)
Degree Days  
Heating Degree Days 4    
Growing Degree Days 10 (Base 50)    
Moisture  
Dew Point 49 °F    
Average Humidity 69    
Maximum Humidity 88    
Minimum Humidity 49    
Precipitation  
Precipitation 0.00 in - - ()
Sea Level Pressure  
Sea Level Pressure 30.16 in    
Wind  
Wind Speed 4 mph (North)    
Max Wind Speed 12 mph    
Max Gust Speed -    
Visibility 10 miles    
Events      
Averages and records for this station are not official NWS values.
T = Trace of Precipitation, MM = Missing Value Source: NWS Daily Summary

Daily Weather History Graph

Daily Weather History Graph

Search for Another Location

Airport or City:

Trip Planner

Search our weather history database for the weather conditions in past years. The results will help you decide how hot, cold, wet, or windy it might be!

Date:

Astronomy

Aug. 14, 2013 Rise Set
Actual Time 6:47 AM EDT 8:33 PM EDT
Civil Twilight 6:18 AM EDT 9:02 PM EDT
Nautical Twilight 5:43 AM EDT 9:37 PM EDT
Astronomical Twilight 5:05 AM EDT 10:14 PM EDT
Moon 2:44 PM EDT (8/14) 12:10 AM EDT (8/14)
Length of Visible Light 14h 44m
Length of Day
13h 46m
First Quarter, 52% of the Moon is Illuminated
Aug 14
First Quarter
Aug 20
Full
Aug 28
Last Quarter
Sep 5
New
Sep 12
First Quarter

Hourly Weather History & Observations

Time (EDT) Temp. Dew Point Humidity Pressure Visibility Wind Dir Wind Speed Gust Speed Precip Events Conditions
12:58 AM 57.7 °F 50.4 °F 76% 30.08 in 10.0 mi Calm Calm - N/A   Clear
1:58 AM 56.8 °F 50.2 °F 78% 30.08 in 10.0 mi Calm Calm - N/A   Clear
2:58 AM 55.9 °F 50.0 °F 80% 30.08 in 10.0 mi NNW 5.8 mph - N/A   Clear
3:58 AM 55.4 °F 50.0 °F 82% 30.09 in 10.0 mi NNW 2.3 mph - N/A   Clear
4:58 AM 54.0 °F 49.6 °F 85% 30.10 in 10.0 mi Calm Calm - N/A   Clear
5:58 AM 52.9 °F 49.1 °F 87% 30.12 in 10.0 mi North 6.9 mph - N/A   Clear
6:58 AM 52.0 °F 48.6 °F 88% 30.14 in 10.0 mi North 4.6 mph - N/A   Clear
7:58 AM 52.7 °F 48.4 °F 85% 30.16 in 10.0 mi North 8.1 mph - N/A   Clear
8:58 AM 55.8 °F 48.7 °F 77% 30.17 in 10.0 mi North 9.2 mph - N/A   Clear
9:58 AM 59.0 °F 49.1 °F 70% 30.18 in 10.0 mi North 9.2 mph - N/A   Clear
10:58 AM 61.0 °F 46.4 °F 59% 30.19 in 10.0 mi NNW 5.8 mph - N/A   Clear
11:58 AM 63.5 °F 45.9 °F 53% 30.20 in 10.0 mi North 11.5 mph - N/A   Clear
12:58 PM 64.9 °F 48.0 °F 54% 30.19 in 10.0 mi NE 6.9 mph - N/A   Clear
1:58 PM 66.4 °F 48.6 °F 53% 30.18 in 10.0 mi Variable 4.6 mph - N/A   Mostly Cloudy
2:58 PM 66.9 °F 47.5 °F 50% 30.18 in 10.0 mi North 10.4 mph - N/A   Mostly Cloudy
3:58 PM 67.5 °F 48.6 °F 51% 30.18 in 10.0 mi Variable 5.8 mph - N/A   Mostly Cloudy
4:58 PM 69.6 °F 49.5 °F 49% 30.17 in 10.0 mi North 5.8 mph - N/A   Scattered Clouds
5:58 PM 66.9 °F 48.0 °F 51% 30.17 in 10.0 mi Variable 5.8 mph - N/A   Scattered Clouds
6:58 PM 67.1 °F 50.5 °F 55% 30.16 in 10.0 mi NNE 6.9 mph - N/A   Partly Cloudy
7:58 PM 63.3 °F 50.7 °F 63% 30.17 in 10.0 mi North 3.5 mph - N/A   Clear
8:58 PM 60.4 °F 51.4 °F 72% 30.17 in 10.0 mi NNE 3.5 mph - N/A   Partly Cloudy
9:58 PM 59.7 °F 53.6 °F 80% 30.18 in 10.0 mi North 1.2 mph - N/A   Clear
10:58 PM 58.1 °F 52.0 °F 80% 30.19 in 10.0 mi NE 1.2 mph - N/A   Clear
11:58 PM 54.7 °F 51.3 °F 88% 30.20 in 10.0 mi NE 1.2 mph - N/A   Clear